N0RWU Weather Reports


Display with metric or nautical units.
time (UTC)temp
F
wind
direction
speed
MPH
gust
MPH
rain 1hr
in
rain 24hr
in
rain mn
in
humidity
%
barometer
mb
20260509055107 60 244 1.0 2.0 0.00 0.00 0.00 47 996.5
20260509052107 62 256 1.0 2.0 0.00 0.00 0.00 51 996.5
20260509051108 62 254 3.0 4.0 0.00 0.00 0.00 50 996.5
20260509045107 64 227 3.0 3.0 0.00 0.00 0.00 49 996.5
20260509043108 65 245 2.0 3.0 0.00 0.00 0.00 46 996.3
20260509042107 65 240 2.0 3.0 0.00 0.00 0.00 46 996.4
20260509041107 65 199 5.0 7.0 0.00 0.00 0.00 46 996.4
20260509035108 65 254 4.0 5.0 0.00 0.00 0.00 44 996.1
20260509034107 65 237 3.0 4.0 0.00 0.00 0.00 42 995.8
20260509033107 65 207 4.0 4.0 0.00 0.00 0.00 41 995.7
20260509032108 65 219 2.0 3.0 0.00 0.00 0.00 41 995.7
20260509030107 66 208 2.0 2.0 0.00 0.00 0.00 40 995.3
20260509022107 68 254 4.0 4.0 0.00 0.00 0.00 36 995.2
20260509021108 68 179 1.0 2.0 0.00 0.00 0.00 36 995.1
20260509020107 69 162 0.0 0.0 0.00 0.00 0.00 35 995.0
20260509015107 70 248 1.0 2.0 0.00 0.00 0.00 34 995.2
20260509014107 70 167 1.0 2.0 0.00 0.00 0.00 33 995.0
20260509013107 70 199 2.0 2.0 0.00 0.00 0.00 34 995.1
20260509012107 70 254 1.0 2.0 0.00 0.00 0.00 33 994.9
20260509011107 70 95 0.0 2.0 0.00 0.00 0.00 33 995.0
20260509010108 71 232 1.0 2.0 0.00 0.00 0.00 32 995.1
20260509005107 72 240 0.0 0.0 0.00 0.00 0.00 31 994.8
20260509004107 72 248 0.0 1.0 0.00 0.00 0.00 30 994.8
20260509003108 73 247 2.0 3.0 0.00 0.00 0.00 29 994.8
20260509002107 73 250 3.0 4.0 0.00 0.00 0.00 29 994.8
20260509000107 74 248 7.0 13.0 0.00 0.00 0.00 27 995.2
20260508235108 74 228 2.0 3.0 0.00 0.00 0.00 26 995.0
20260508234107 75 263 8.0 9.0 0.00 0.00 0.00 25 995.1
20260508233107 76 202 5.0 7.0 0.00 0.00 0.00 24 995.2
20260508232107 77 245 6.0 7.0 0.00 0.00 0.00 24 995.3
20260508231108 76 250 5.0 5.0 0.00 0.00 0.00 25 995.3
20260508230107 77 244 9.0 11.0 0.00 0.00 0.00 23 995.4
20260508225107 77 180 7.0 7.0 0.00 0.00 0.00 23 995.4
20260508224108 77 252 4.0 4.0 0.00 0.00 0.00 23 995.5
20260508223107 78 231 4.0 5.0 0.00 0.00 0.00 22 995.6
20260508222107 78 271 2.0 3.0 0.00 0.00 0.00 25 995.6
20260508221108 75 226 3.0 4.0 0.00 0.00 0.00 24 995.6
20260508220107 76 247 8.0 10.0 0.00 0.00 0.00 23 995.8
20260508214107 77 268 5.0 7.0 0.00 0.00 0.00 22 995.9
20260508213108 79 219 5.0 5.0 0.00 0.00 0.00 22 996.0
20260508212107 78 220 7.0 9.0 0.00 0.00 0.00 22 996.2
20260508205108 76 113 3.0 4.0 0.00 0.00 0.00 25 996.5
20260508204107 77 237 5.0 7.0 0.00 0.00 0.00 21 996.7
20260508203107 76 228 5.0 7.0 0.00 0.00 0.00 23 996.8
20260508201107 78 264 2.0 3.0 0.00 0.00 0.00 23 997.0
20260508194108 79 146 0.0 0.0 0.00 0.00 0.00 22 997.7
20260508193107 78 254 4.0 7.0 0.00 0.00 0.00 22 997.9
20260508192107 78 141 0.0 0.0 0.00 0.00 0.00 25 998.0
20260508191108 76 120 6.0 7.0 0.00 0.00 0.00 23 998.0
20260508185107 75 243 3.0 4.0 0.00 0.00 0.00 25 998.4
20260508184107 75 240 6.0 7.0 0.00 0.00 0.00 24 998.5
20260508182107 75 172 5.0 6.0 0.00 0.00 0.00 25 998.7
20260508181109 75 245 3.0 4.0 0.00 0.00 0.00 24 998.8
20260508180107 74 263 3.0 3.0 0.00 0.00 0.00 24 998.9
20260508175107 75 147 2.0 3.0 0.00 0.00 0.00 25 998.9
20260508173108 74 276 2.0 3.0 0.00 0.00 0.00 26 999.1
20260508171107 73 234 5.0 6.0 0.00 0.00 0.00 26 999.5
20260508170107 73 145 3.0 3.0 0.00 0.00 0.00 27 999.7
20260508165108 73 187 2.0 2.0 0.00 0.00 0.00 27 999.7
20260508164107 74 193 5.0 7.0 0.00 0.00 0.00 26 999.8
20260508163108 74 267 2.0 3.0 0.00 0.00 0.00 29 999.9
20260508162107 75 200 3.0 3.0 0.00 0.00 0.00 27 1000.0
20260508161107 73 141 2.0 3.0 0.00 0.00 0.00 26 1000.0
20260508155107 72 236 2.0 2.0 0.00 0.00 0.00 32 1000.1
20260508154108 72 220 2.0 4.0 0.00 0.00 0.00 34 1000.3
20260508153107 70 204 2.0 2.0 0.00 0.00 0.00 36 1000.4
20260508152107 70 208 3.0 4.0 0.00 0.00 0.00 36 1000.6
20260508150107 69 192 4.0 6.0 0.00 0.00 0.00 40 1000.5
20260508145107 68 175 3.0 3.0 0.00 0.00 0.00 41 1000.7
20260508143107 68 172 3.0 4.0 0.00 0.00 0.00 41 1000.8
20260508142107 66 177 4.0 5.0 0.00 0.00 0.00 41 1000.9
20260508141108 67 207 2.0 2.0 0.00 0.00 0.00 40 1000.9
20260508134107 62 187 2.0 4.0 0.00 0.00 0.00 43 1000.9
20260508133107 61 195 3.0 4.0 0.00 0.00 0.00 42 1000.9
20260508132108 60 166 3.0 4.0 0.00 0.00 0.00 42 1001.0
20260508131107 60 160 2.0 3.0 0.00 0.00 0.00 42 1000.9
20260508125107 59 204 1.0 2.0 0.00 0.00 0.00 41 1000.6
20260508123107 57 162 2.0 2.0 0.00 0.00 0.00 42 1000.7
20260508122107 57 257 0.0 0.0 0.00 0.00 0.00 49 1000.7
20260508121107 54 261 0.0 0.0 0.00 0.00 0.00 54 1000.9
20260508120107 51 263 0.0 0.0 0.00 0.00 0.00 59 1000.5
20260508114107 44 292 0.0 0.0 0.00 0.00 0.00 69 1000.6
20260508113108 41 295 0.0 0.0 0.00 0.00 0.00 71 1000.6
20260508112107 41 316 0.0 0.0 0.00 0.00 0.00 71 1000.7
20260508111108 41 316 0.0 0.0 0.00 0.00 0.00 71 1000.7
20260508110107 42 285 0.0 0.0 0.00 0.00 0.00 71 1000.9
20260508105107 42 248 0.0 0.0 0.00 0.00 0.00 69 1000.9
20260508104107 43 245 0.0 0.0 0.00 0.00 0.00 69 1000.9
20260508103107 43 243 0.0 0.0 0.00 0.00 0.00 67 1000.9
20260508102108 42 155 0.0 0.0 0.00 0.00 0.00 63 1000.8
20260508101107 43 155 0.0 0.0 0.00 0.00 0.00 63 1000.9
20260508095108 44 155 0.0 0.0 0.00 0.00 0.00 58 1001.0
20260508094107 44 155 0.0 0.0 0.00 0.00 0.00 60 1001.1
20260508093107 44 155 0.0 0.0 0.00 0.00 0.00 58 1000.8
20260508092107 45 155 0.0 0.0 0.00 0.00 0.00 56 1000.9
20260508091108 46 155 0.0 0.0 0.00 0.00 0.00 53 1000.9
20260508090107 47 155 0.0 0.0 0.00 0.00 0.00 51 1000.8
20260508085107 47 174 0.0 1.0 0.00 0.00 0.00 50 1000.9
20260508084108 47 176 0.0 0.0 0.00 0.00 0.00 50 1000.7
20260508083107 47 141 0.0 1.0 0.00 0.00 0.00 52 1000.8
20260508082107 46 173 0.0 0.0 0.00 0.00 0.00 55 1000.8
20260508081108 47 172 1.0 2.0 0.00 0.00 0.00 52 1000.8
20260508080107 44 172 0.0 0.0 0.00 0.00 0.00 57 1000.9
20260508075108 42 226 0.0 0.0 0.00 0.00 0.00 61 1001.0
20260508073107 44 225 0.0 0.0 0.00 0.00 0.00 58 1001.2
20260508072107 44 226 0.0 0.0 0.00 0.00 0.00 57 1001.5
20260508071107 45 226 0.0 0.0 0.00 0.00 0.00 55 1001.4
20260508070107 46 225 0.0 0.0 0.00 0.00 0.00 53 1001.2
20260508064107 50 168 0.0 1.0 0.00 0.00 0.00 44 1001.3
20260508063107 50 156 3.0 4.0 0.00 0.00 0.00 43 1001.3
20260508062108 51 150 2.0 2.0 0.00 0.00 0.00 43 1001.4
20260508061107 51 143 1.0 2.0 0.00 0.00 0.00 43 1001.4